Terminal Aerodrome Forecast
Issued by NWS Charleston, WV

Current Version | Previous Version | Graphics & Text | Print | Product List | Glossary On
Versions: 1 2 3 4 5 6 7 8 9 10 11 12 13 14 15 16 17 18 19 20 21
000
FTUS41 KRLX 131500 AAA
TAFCRW
TAF AMD
KCRW 131507Z 1315/1412 22008KT P6SM FEW090 BKN150
     FM131800 23011KT P6SM BKN040
     FM132000 22009G15KT P6SM VCTS BKN040CB
     FM140100 20005KT P6SM VCTS BKN040CB
     FM140500 20004KT 5SM SHRA BR VCTS OVC025CB
     FM140800 22004KT 3SM +TSRA BR OVC015CB=

USA.gov is the U.S. government's official web portal to all federal, state and local government web resources and services.